Regional Weather Roundup
Issued by NWS

Home | Current Version | Previous Version | Graphics & Text | Print | Product List | Glossary On
Versions: 1 2 3 4 5 6 7 8 9 10 11 12 13 14 15 16 17 18 19 20 21 22 23 24 25 26 27 28 29 30 31 32 33 34 35 36 37 38 39 40 41 42 43 44 45 46 47 48 49 50
000
ASUS43 KDTX 180801
RWRMI
MICHIGAN HOURLY REGIONAL WEATHER ROUNDUP
NATIONAL WEATHER SERVICE DETROIT/PONTIAC MI
300 AM EST WED JAN 18 2017

NOTE: "FAIR" INDICATES FEW OR NO CLOUDS BELOW 12,000 FEET WITH NO
SIGNIFICANT WEATHER AND/OR OBSTRUCTION TO VISIBILITY.

MIZ047>049-052>055-059>063-066>070-074>076-081>083-180900-
SOUTHEAST LOWER MICHIGAN

CITY           SKY/WX    TMP DP  RH WIND       PRES   REMARKS
ADRIAN         LGT RAIN  35  34  96 W12       29.99R WCI  27
ALMA           CLOUDY    35  35  98 W8        29.94R FOG     WCI  29
ANN ARBOR      CLOUDY    37  35  92 SW10      29.96R WCI  30
BAD AXE        FOG       33  33 100 W6        29.90S VSB 3/4 WCI  28
CARO           CLOUDY    35  34  97 W7        29.91R FOG     WCI  29
DETROIT        CLOUDY    39  36  89 W10       29.96R WCI  32
FLINT          CLOUDY    36  35  96 W10       29.93R FOG     WCI  28
GROSSE ILE     CLOUDY    38  36  92 W6        29.95R WCI  33
HILLSDALE      LGT SNOW  32  32 100 W9        29.96R WCI  24
HOWELL         CLOUDY    36  34  94 W8        29.94R WCI  29

CITY           SKY/WX    TMP DP  RH WIND       PRES   REMARKS
JACKSON        LGT RAIN  36  33  89 W9        29.97R WCI  29
LAMBERTVILLE   CLOUDY    38  36  92 W9        29.99R FOG     WCI  31
LANSING        CLOUDY    36  34  92 W10       29.96R FOG     WCI  28
LAPEER         CLOUDY    36  36  99 W5        29.92R FOG     WCI  32
MASON          CLOUDY    35  35 100 W7        29.95R FOG     WCI  29
MONROE         CLOUDY    37  37  97 W9        29.96R WCI  31
MT. CLEMENS    CLOUDY    38  37  97 W9        29.91R WCI  32
PONTIAC        CLOUDY    36  34  92 W12       29.91R WCI  28
PORT HOPE        N/A     34  34 100 W8        29.88R WCI  27
PORT HURON     LGT RAIN  36  36 100 CALM      29.92R
TRI CITIES     CLOUDY    35  35 100 W10       29.93R FOG     WCI  27
MIDLAND        CLOUDY    35  34  96 W6        29.92R WCI  30
TROY           CLOUDY    38  35  90 W8        29.95R WCI  32
SAGINAW HB     CLOUDY    36  34  93 W7        29.93R FOG     WCI  30
$$
MIZ043>046-050>051-056>058-064>065-071>073-077>080-180900-
SOUTHWEST LOWER MICHIGAN

CITY           SKY/WX    TMP DP  RH WIND       PRES   REMARKS
BATTLE CREEK   CLOUDY    35  35 100 W12       29.97R FOG     WCI  27
BENTON HARBOR  CLOUDY    36  34  92 W13       30.02R FOG     WCI  27
BIG RAPIDS     CLOUDY    34  33  96 W3        29.93R FOG
COLDWATER      CLOUDY    35  35 100 W9        29.99R FOG     WCI  27
FREMONT        FOG       35  35 100 W3        29.95R VSB 1
HOLLAND        CLOUDY    36  35  96 W7        29.98R FOG     WCI  30
GRAND RAPIDS   CLOUDY    36  34  92 W8        29.96R FOG     WCI  30
IONIA          CLOUDY    35  35  99 W8        29.95R FOG     WCI  28
KALAMAZOO      CLOUDY    36  33  89 W8        29.99R FOG     WCI  30
LUDINGTON      CLOUDY    36  36 100 NW6       29.95R FOG     WCI  31
MARSHALL       LGT RAIN  35  35  99 W10       29.97R WCI  27
MOUNT PLEASANT CLOUDY    35  34  98 W3        29.93R
MUSKEGON       CLOUDY    37  35  92 W8        29.98R WCI  31
SOUTH HAVEN    CLOUDY    36  35  98 W9        30.00R FOG     WCI  29
$$
MIZ016>042-180900-
NORTHERN LOWER MICHIGAN

CITY           SKY/WX    TMP DP  RH WIND       PRES   REMARKS
ALPENA         FOG       33  32  96 N5        29.91R VSB 3/4 WCI  29
BELLAIRE       CLOUDY    32  32  99 CALM      29.93R FOG
CADILLAC       FOG       33  33  96 W5        29.90R VSB 3/4 WCI  29
CHARLEVOIX     CLOUDY    33  33 100 W3        29.96R FOG
FRANKFORT      CLOUDY    35  35 100 CALM      29.94R FOG
GAYLORD        FOG       33  30  88 CALM      29.88R VSB 3/4
GRAYLING       FOG       34  33  96 CALM      29.90R VSB 1
HARBOR SPRINGS CLOUDY    32  32  99 W3        29.92R FOG
HOUGHTON LAKE  FOG       33  32  96 W5        29.90R VSB 1/2 WCI  29
MANISTEE       CLOUDY    35  34  96 W3        29.95R FOG
OSCODA         FOG       35  34  96 NW5       29.90R VSB 1   WCI  31
PELLSTON       FOG       32  30  92 W3        29.93R VSB 3/4
ROGERS CITY    CLOUDY    33  32  96 CALM      29.91R FOG
TRAVERSE CITY  CLOUDY    34  33  96 W3        29.93R FOG
$$
MIZ007>008-015-180900-
EASTERN UPPER MICHIGAN

CITY           SKY/WX    TMP DP  RH WIND       PRES   REMARKS
KINROSS        CLOUDY    30  28  92 SW5       29.90R WCI  25
MACKINAC ISLAN CLOUDY    32  32 100 W5        29.91R FOG     WCI  27
NEWBERRY       CLOUDY    26  25  97 S6        29.90S WCI  19
S. S. MARIE    MOCLDY    31  26  82 CALM      29.90R
MUNISING         N/A     30  27  88 S9        29.89S WCI  22
$$
MIZ004>006-011>014-085-180900-
CENTRAL UPPER MICHIGAN

CITY           SKY/WX    TMP DP  RH WIND       PRES   REMARKS
MANISTIQUE     CLOUDY    32  31  96 SW3       29.92S FOG
ESCANABA       CLOUDY    34  33  96 W9        29.93S WCI  27
SAWYER-GWINN   FOG       21  20  96 SW3       29.88S VSB 1/4
$$
MIZ001>003-009>011-084-180900-
WESTERN UPPER MICHIGAN

CITY           SKY/WX    TMP DP  RH WIND       PRES   REMARKS
IRON MOUNTAIN  FOG       16  12  84 CALM      29.90R VSB 1/4
HOUGHTON       CLOUDY    31  23  72 S10       29.81F WCI  22
COPPER HARBOR    N/A     27  24  89 SW8       29.82F WCI  19
IRONWOOD       CLOUDY    31  26  82 SW8       29.84F WCI  23
$$

ABBREVIATIONS USED IN REMARKS
   TC - TEMPERATURE IN CELSIUS
  WCI - WIND CHILL INDEX
   HX - HEAT INDEX
  VSB - VISIBILITY





USA.gov is the U.S. government's official web portal to all federal, state and local government web resources and services.